This demonstration page uses our WeatherBlox Daily Observations layout. Learn more.

Left ArrowRight Arrow

Hourly Observations for November 9, 2022

Temp ( °F °C ) Dew Point ( °F °C ) Humidity (%) Winds ( mph kmh ) Pressure ( in mb ) Visibility ( mi km ) Precip ( " mm )
12:56 am 00:56 Mostly Clear 63 17.2 60 15.6 90 90 S 22 35 29.93 1014 10 16 0.00 0.00
1:56 am 01:56 Mostly Clear 63 17.2 60 15.6 90 90 S 18 30 29.91 1013 10 16 0.00 0.00
2:52 am 02:52 Mostly Cloudy 63 17 61 16 94 94 S 22 35 29.87 1012 10 16 0.00 0.00
2:56 am 02:56 Mostly Cloudy 63 17.2 60 15.6 90 90 S 24 39 29.89 1012 10 16 0.00 0.00
3:56 am 03:56 Cloudy 64 17.8 60 15.6 87 87 S 23 37 29.88 1012 10 16 0.00 0.00
4:56 am 04:56 Cloudy 64 17.8 60 15.6 87 87 S 20 31 29.88 1012 10 16 0.00 0.00
5:54 am 05:54 Cloudy 63 17 61 16 94 94 S 17 28 29.88 1012 10 16 0.00 0.00
5:56 am 05:56 Cloudy 63 17.2 60 15.6 90 90 S 17 28 29.89 1012 10 16 0.00 0.00
6:43 am 06:43 Cloudy 63 17 61 16 94 94 S 16 26 29.86 1011 10 16 0.00 0.00
6:56 am 06:56 Cloudy 64 17.8 59 15 84 84 S 20 31 29.87 1012 10 16 0.00 0.00
7:38 am 07:38 Cloudy 64 18 61 16 88 88 S 18 30 29.85 1011 10 16 0.00 0.00
7:56 am 07:56 Cloudy 64 17.8 60 15.6 87 87 S 20 31 29.88 1012 10 16 0.00 0.00
8:17 am 08:17 Cloudy 64 18 61 16 88 88 S 20 31 29.86 1011 10 16 0.00 0.00
8:56 am 08:56 Cloudy 64 17.8 60 15.6 87 87 S 18 30 29.89 1012 10 16 0.00 0.00
9:39 am 09:39 Cloudy 64 18 61 16 88 88 S 22 35 29.85 1011 10 16 0.00 0.00
9:56 am 09:56 Cloudy 66 18.9 60 15.6 81 81 S 21 33 29.87 1012 10 16 0.00 0.00
10:56 am 10:56 Cloudy 67 19.4 60 15.6 79 79 S 22 35 29.85 1011 10 16 0.00 0.00
11:56 am 11:56 Cloudy 69 20.6 60 15.6 73 73 S 23 37 29.82 1010 10 16 0.00 0.00
12:10 pm 12:10 Cloudy 70 21 61 16 73 73 S 23 37 29.77 1008 10 16 0.00 0.00
12:56 pm 12:56 Cloudy 71 21.7 60 15.6 68 68 S 21 33 29.78 1008 10 16 0.00 0.00
1:08 pm 13:08 Cloudy 72 22 61 16 69 69 S 18 30 29.72 1007 10 16 0.00 0.00
1:56 pm 13:56 Cloudy 73 22.8 60 15.6 64 64 S 23 37 29.73 1007 10 16 0.00 0.00
2:56 pm 14:56 Cloudy 75 23.9 59 15 57 57 S 31 50 29.68 1005 10 16 0.00 0.00
3:56 pm 15:56 Mostly Cloudy 73 22.8 58 14.4 59 59 S 33 54 29.66 1004 10 16 0.00 0.00
4:56 pm 16:56 Cloudy 72 22.2 58 14.4 61 61 S 28 44 29.65 1004 10 16 0.00 0.00
5:56 pm 17:56 Cloudy 71 21.7 59 15 66 66 S 29 46 29.63 1004 10 16 0.00 0.00
6:56 pm 18:56 Cloudy 70 21.1 59 15 68 68 S 24 39 29.63 1004 10 16 0.00 0.00
7:56 pm 19:56 Cloudy 70 21.1 59 15 68 68 S 26 43 29.65 1004 10 16 0.00 0.00
8:56 pm 20:56 Mostly Cloudy 67 19.4 58 14.4 73 73 S 22 35 29.65 1004 10 16 0.00 0.00
9:56 pm 21:56 Clear 65 18.3 59 15 81 81 S 24 39 29.63 1004 10 16 0.00 0.00
10:56 pm 22:56 Cloudy 65 18.3 60 15.6 84 84 S 25 41 29.62 1003 10 16 0.00 0.00
11:47 pm 23:47 Cloudy 66 19 61 16 83 83 S 26 43 29.57 1002 10 16 0.00 0.00

Powered by AerisWeather